Regional Weather Roundup
Issued by NWS Upton, NY

Current Version | Previous Version | Text Only | Print | Product List | Glossary On
Versions: 1 2 3 4 5 6 7 8 9 10 11 12 13 14 15 16 17 18 19 20 21 22 23 24 25 26 27 28 29
000
ASUS41 KOKX 241208
RWROKX

REGIONAL WEATHER ROUNDUP
NATIONAL WEATHER SERVICE NEW YORK NY
700 AM EST FRI NOV 24 2017

NOTE: "FAIR" INDICATES FEW OR NO CLOUDS BELOW 12,000 FEET WITH NO
SIGNIFICANT WEATHER AND/OR OBSTRUCTIONS TO VISIBILITY.

NYZ071-072-176-178-NJZ106-104-241300-
NEW YORK CITY METRO AREA

CITY           SKY/WX    TMP DP  RH WIND       PRES   REMARKS
Central Park   CLEAR     36  21  54 CALM      30.07R
Bronx Bot Gard   N/A     36  21  55 CALM      30.05F
Bronx Lehman C   N/A     36  32  87 W3          N/A
LaGuardia APRT PTCLDY    38  22  52 NW3       30.05R
Queens College   N/A     36  32  87 SW3         N/A
Kennedy INTL   PTCLDY    34  26  72 W6        30.07R WCI  29
Breezy Point     N/A     36 N/A N/A W6          N/A  WCI  31
Brooklyn Coll    N/A     36  32  87 W5          N/A  WCI  32
Staten Island    N/A     32  32 100 S2          N/A
Newark/Liberty PTCLDY    32  22  66 CALM      30.06R
Teterboro      CLEAR     31  23  72 CALM      30.05R
$$

NYZ177-179-078>081-241300-
LONG ISLAND NEW YORK

CITY           SKY/WX    TMP DP  RH WIND       PRES   REMARKS
Jones Beach      N/A     37 N/A N/A W7          N/A  WCI  32
Wantagh          N/A     34  32  93 W5          N/A  WCI  30
Matinecock PT    N/A     37 N/A N/A SW5         N/A  WCI  34
Farmingdale    CLEAR     31  25  78 CALM      30.06R
MacArthur/ISP  PTCLDY    27  23  85 CALM      30.05R
Shirley        CLEAR     28  24  85 CALM      30.06R
Mt Sinai Harb    N/A    N/A N/A N/A SW3         N/A
Westhampton    CLEAR     21  17  84 CALM      30.07R
East Hampton   FAIR      24  22  92 CALM      30.04R
Southold         N/A     30  32 100 SW2         N/A
Montauk          N/A     38  31  76 CALM      30.05R
$$

NYZ052-065-067-241300-
HUDSON VALLEY

CITY           SKY/WX    TMP DP  RH WIND       PRES   REMARKS
White Plains   CLEAR     29  21  72 W3        30.03R
Larchmont Harb   N/A     36 N/A N/A SW7         N/A  WCI  30
Croton On Huds   N/A    N/A N/A N/A NE2         N/A
Somers           N/A     32  32 100 SW2         N/A
Brewster         N/A     25  32 100 CALM        N/A
Newburgh       PTCLDY    27  23  86 W7        30.04R WCI  19
Montgomery     CLEAR     23  19  85 SW6       30.03R WCI  16
Suffern          N/A     32  32 100 SW2         N/A
Poughkeepsie   CLEAR     24  20  84 CALM      30.03S
Albany         MOCLDY    31  21  66 S7        30.01R WCI  24
$$

NJZ001-105-106-008-010-013-015-019>022-104-241300-
NEW JERSEY

CITY           SKY/WX    TMP DP  RH WIND       PRES   REMARKS
Newark/Liberty PTCLDY    32  22  66 CALM      30.06R
Teterboro      CLEAR     31  23  72 CALM      30.05R
Caldwell       CLEAR     25  22  88 CALM      30.06R
Somerville     CLEAR     22  20  92 CALM      30.05R
Linden         FAIR      30  21  68 CALM      30.06S
Perth Amboy      N/A    N/A N/A N/A W6          N/A
Sussex         CLOUDY    22  20  92 CALM      30.04R
Andover          N/A     23  21  92 CALM      30.04R
Trenton        CLOUDY    28  22  78 CALM      30.05S
Millville      CLOUDY    23  23 100 CALM      30.08S
Atlantic City  CLOUDY    26  22  84 CALM      30.08S
Wrightstown    CLEAR     27  24  87 CALM      30.04R
Toms River     CLEAR     21  19  92 CALM      30.07
Belmar         CLEAR     27  23  85 SW7       30.07R WCI  19
$$

PAZ047>061-062-071-241300-
EASTERN PENNSYLVANIA

CITY           SKY/WX    TMP DP  RH WIND       PRES   REMARKS
Philadelphia   CLEAR     32  27  81 W3        30.08S
Allentown      CLOUDY    25  20  81 NW5       30.06R WCI  19
Scranton       CLOUDY    30  21  69 CALM      30.02R
$$

CTZ002-004>006-009-010-012-RIZ004-006-007-MAZ004-011-015-241300-
SOUTHERN NEW ENGLAND
 IN CT

CITY           SKY/WX    TMP DP  RH WIND       PRES   REMARKS
Bradley INTL   PTCLDY    25  22  88 CALM      30.03R
Hartford       PTCLDY    28  24  85 S5        30.04R WCI  23
Danbury        CLOUDY    25  20  81 SW3       30.04R
Wtrbury/Oxford CLOUDY    27  21  78 CALM      30.01R
Norwalk Harbor   N/A     32 N/A N/A W6          N/A  WCI  26
Bridgeport     CLEAR     30  23  75 CALM      30.06R
Meriden        PTCLDY    22  20  92 CALM      30.04R
New Haven      PTCLDY    26  22  84 CALM      30.05R
Chester        FAIR      30  21  69 CALM      30.03R
Groton         CLEAR     27  23  85 N5        30.05R WCI  22
Wilimantic     CLOUDY    26  23  88 CALM      30.04R

 IN RI

CITY           SKY/WX    TMP DP  RH WIND       PRES   REMARKS
Providence     PTCLDY    30  23  75 W7        30.04R WCI  23
Block Island   CLEAR     37  24  59 W5        30.04R WCI  33
Westerly       CLEAR     26  25  96 CALM      30.05R
 IN MA

CITY           SKY/WX    TMP DP  RH WIND       PRES   REMARKS
Boston         CLEAR     33  24  69 SW10      30.01R WCI  25
Worcester      CLOUDY    29  18  63 W12       29.96R WCI  19
Westfield      CLOUDY    24  21  88 CALM      30.01R
Provincetown   CLEAR     38  29  70 W9          N/A  WCI  31
Nantucket      CLEAR     36  26  67 NW8       30.04R WCI  30
$$

ANZ330-335-338-340-345-350-353-355-241300-
COASTAL MARINE OBSERVATIONS


STATION/POSITION TIME  SKY/WX   TEMP    WIND        PRES    VSBY  WAVE
                                AIR SEA DIR/SP/G                  HT/PER
                 (UTC)          (F)     (DEG/KT/KT) (MB)    (MI)  (FT/S)
NY HARB ENTRANCE 1050            42 55  270/ 12/ 14 1017.0          3/ 9
20 S FIRE ISLAND 1150            44 56  270/ 10/ 12 1017.7          3/ 9
GREAT SOUTH BAY  1130            37 44  300/  4/  4   N/A
HUDSON CANYON    1050            47 58  300/  8/ 12 1017.6          4/ 9
KINGS POINT      1148            38 49  260/  2/  5 1018.5
EXECUTION ROCKS  1130            39     250/  8/ 12   N/A
WESTERN LI SOUND 1119            39     260/  8/ 12   N/A           0
CENTRAL LI SOUND NOT AVBL
ROBBINS REEF     1148            36     260/  6/  7 1018.4
$$


>>>>>>>>>>>>>>>>>>>>>>>>>>>> KEY <<<<<<<<<<<<<<<<<<<<<<<<<<<
>                                                          <
>     SKY/WX - Sky Condition/Present Weather               <
>     TMP    - Temperature in Fahrenheit                   <
>     DP     - Dew Point in Fahrenheit                     <
>     RH     - Relative Humidity in Percent                <
>     WIND   - Direction (from) and Speed in MPH           <
>     PRES   - Mean Sea Level Pressure (inches of Hg)      <
>     WCI    - Wind Chill Index                            <
>     VSB    - VISIBILITY IN MILES                         <
>     HX     - HEAT INDEX                                  <
>     TC     - TEMPERATURE IN CELSIUS                      <
>     VRB    - VARIABLE WIND DIRECTION                     <
>                                                          <
>>>>>>>>>>>>>>>>>>>>>>>>>>>> KEY <<<<<<<<<<<<<<<<<<<<<<<<<<<




USA.gov is the U.S. government's official web portal to all federal, state and local government web resources and services.